period_start,C,m1,H,J0,J1,J2,J3,J4,J5,JA,JB,JC,JD,JJ,JK,JN,#
2014-12-01 00:01:12,0.06,0.47,0.00,19.21,23.75,26.97,4.91,25.96,1033.02,2047.98,3308.40,3206.67,3470.02,349.68,357.62,5.24,0000 0000 0000 0000 000000
2014-12-01 00:06:13,0.06,0.48,0.00,19.24,23.75,26.98,4.89,25.92,1033.10,2047.98,3307.55,3206.02,3469.25,349.86,357.60,5.27,0000 0000 0000 0000 000000
2014-12-01 00:11:15,0.08,0.48,0.00,19.23,23.75,26.97,5.01,26.05,1033.12,2047.99,3306.62,3205.49,3468.66,349.99,357.66,5.30,0000 0000 0000 0000 000000
2014-12-01 00:16:16,0.04,0.48,0.00,19.24,23.75,26.98,4.92,26.02,1033.14,2047.98,3305.61,3204.97,3467.95,350.18,358.37,5.33,0000 0000 0000 0000 000000
2014-12-01 00:21:17,0.09,0.48,0.00,19.25,23.75,26.99,4.88,25.92,1033.16,2047.98,3304.65,3204.18,3467.13,349.29,357.18,5.36,0000 0000 0000 0000 000000
2014-12-01 00:26:18,0.05,0.48,0.00,19.24,23.75,26.98,5.01,26.02,1033.21,2047.98,3303.80,3203.84,3466.55,350.44,358.26,5.39,0000 0000 0000 0000 000000
2014-12-01 00:31:20,0.06,0.49,0.00,19.24,23.76,27.00,4.96,25.94,1033.21,2047.98,3302.91,3203.08,3465.95,349.85,357.67,5.42,0000 0000 0000 0000 000000
2014-12-01 00:36:21,0.06,0.49,0.00,19.23,23.76,26.98,4.92,26.17,1033.22,2047.99,3301.98,3202.80,3465.15,349.76,357.47,5.45,0000 0000 0000 0000 000000
2014-12-01 00:41:23,0.07,0.49,0.00,19.23,23.76,26.99,4.97,26.15,1033.22,2047.98,3301.04,3202.04,3464.47,350.32,358.31,5.48,0000 0000 0000 0000 000000
2014-12-01 00:46:24,0.06,0.49,0.00,19.27,23.77,27.00,4.93,25.98,1033.22,2047.96,3300.12,3201.48,3463.90,350.24,357.92,5.51,0000 0000 0000 0000 000000
2014-12-01 00:51:25,0.07,0.50,0.00,19.28,23.77,27.01,4.92,25.97,1033.22,2047.97,3299.08,3200.90,3463.08,349.40,357.16,5.54,0000 0000 0000 0000 000000
2014-12-01 00:56:26,0.08,0.50,0.00,19.30,23.77,27.02,4.87,25.84,1033.22,2047.98,3298.10,3200.10,3462.37,350.13,357.87,5.57,0000 0000 0000 0000 000000
2014-12-01 01:01:27,0.07,0.50,0.00,19.26,23.77,26.98,4.92,26.04,1033.21,2047.97,3297.11,3199.65,3461.69,350.25,358.01,5.60,0000 0000 0000 0000 000000
2014-12-01 01:06:28,0.08,0.50,0.00,19.27,23.77,27.01,4.98,26.03,1033.21,2047.98,3295.83,3198.89,3460.75,350.77,358.66,5.63,0000 0000 0000 0000 000000
2014-12-01 01:11:29,0.09,0.50,0.00,19.28,23.77,26.96,4.96,25.93,1033.21,2047.96,3294.40,3198.03,3459.72,350.29,358.17,5.65,0000 0000 0000 0000 000000
2014-12-01 01:16:31,0.10,0.51,0.00,19.29,23.77,26.99,4.92,26.02,1033.21,2047.95,3293.01,3197.13,3458.70,350.44,358.36,5.68,0000 0000 0000 0000 000000
2014-12-01 01:21:32,0.10,0.51,0.00,19.28,23.78,27.00,4.94,26.00,1033.22,2047.96,3291.71,3196.33,3457.77,349.99,357.84,5.71,0000 0000 0000 0000 000000
2014-12-01 01:26:33,0.18,0.52,0.00,19.29,23.79,26.99,5.02,26.03,1033.21,2047.96,3289.50,3194.91,3456.22,350.56,358.50,5.74,0000 0000 0000 0000 000000
2014-12-01 01:31:35,0.14,0.52,0.00,19.31,23.80,27.00,4.94,26.02,1033.21,2047.91,3287.32,3193.50,3454.69,349.72,357.58,5.77,0000 0000 0000 0000 000000
2014-12-01 01:36:36,0.09,0.52,0.00,19.32,23.80,26.99,4.93,26.14,1033.22,2047.71,3285.32,3192.24,3453.30,349.76,357.66,5.80,0000 0000 0000 0000 000000
2014-12-01 01:41:37,0.11,0.53,0.00,19.32,23.80,27.01,4.91,26.11,1033.22,2047.49,3283.44,3191.01,3451.95,349.71,357.50,5.83,0000 0000 0000 0000 000000
2014-12-01 01:46:39,0.17,0.53,0.00,19.33,23.80,27.01,4.99,26.07,1033.22,2047.70,3281.78,3189.92,3450.71,350.26,358.03,5.86,0000 0000 0000 0000 000000
2014-12-01 01:51:40,0.15,0.53,0.00,19.32,23.80,26.98,4.97,26.02,1033.22,2047.65,3279.92,3188.66,3449.36,349.98,357.70,5.89,0000 0000 0000 0000 000000
2014-12-01 01:56:41,0.11,0.54,0.00,19.34,23.82,27.01,4.90,26.04,1033.22,2047.73,3278.32,3187.64,3448.18,349.72,357.61,5.92,0000 0000 0000 0000 000000
2014-12-01 02:01:42,0.03,0.54,0.00,19.35,23.82,27.01,4.94,26.01,1033.22,2047.53,3277.06,3186.90,3447.22,349.30,357.07,5.95,0000 0000 0000 0000 000000
2014-12-01 02:06:44,0.07,0.54,0.00,19.37,23.82,27.05,4.96,25.95,1033.22,2047.37,3276.00,3186.09,3446.43,350.31,357.96,5.98,0000 0000 0000 0000 000000
2014-12-01 02:11:45,0.05,0.54,0.00,19.38,23.83,27.02,4.94,25.98,1033.22,2047.32,3275.06,3185.74,3445.87,350.28,358.00,6.01,0000 0000 0000 0000 000000
2014-12-01 02:16:46,0.04,0.55,0.00,19.38,23.84,27.01,4.93,26.00,1033.23,2047.16,3273.94,3185.00,3445.00,349.91,357.88,6.04,0000 0000 0000 0000 000000
2014-12-01 02:21:47,0.09,0.55,0.00,19.41,23.85,27.02,4.94,25.92,1033.24,2047.07,3272.84,3184.15,3444.10,349.91,357.30,6.06,0000 0000 0000 0000 000000
2014-12-01 02:26:49,0.09,0.55,0.00,19.41,23.85,27.05,4.88,25.87,1033.24,2047.05,3271.74,3183.61,3443.22,349.75,357.46,6.09,0000 0000 0000 0000 000000
2014-12-01 02:31:50,0.07,0.55,0.00,19.42,23.86,27.02,4.81,26.04,1033.23,2047.04,3270.55,3182.86,3442.40,349.14,356.94,6.12,0000 0000 0000 0000 000000
2014-12-01 02:36:51,0.11,0.56,0.00,19.45,23.87,27.04,4.93,26.11,1033.29,2047.04,3269.11,3181.87,3441.44,349.68,357.36,6.15,0000 0000 0000 0000 000000
2014-12-01 02:41:52,0.19,0.56,0.00,19.43,23.87,27.02,4.90,26.04,1033.30,2047.01,3266.74,3180.33,3439.77,349.79,357.53,6.18,0000 0000 0000 0000 000000
2014-12-01 02:46:54,0.21,0.57,0.00,19.47,23.87,27.04,4.89,26.07,1033.46,2047.04,3264.07,3178.55,3437.80,349.77,357.58,6.21,0000 0000 0000 0000 000000
2014-12-01 02:51:55,0.27,0.57,0.00,19.46,23.89,27.02,4.94,26.02,1033.50,2047.04,3260.88,3176.34,3435.34,349.85,357.66,6.24,0000 0000 0000 0000 000000
2014-12-01 02:56:57,0.30,0.58,0.00,19.45,23.90,27.04,4.93,26.02,1033.61,2047.00,3256.87,3173.55,3432.35,349.94,357.65,6.27,0000 0000 0000 0000 000000
2014-12-01 03:01:58,0.34,0.59,0.00,19.45,23.90,27.07,4.94,26.18,1033.63,2047.01,3252.55,3170.59,3429.23,349.78,357.57,6.30,0000 0000 0000 0000 000000
2014-12-01 03:06:59,0.33,0.60,0.00,19.44,23.91,27.10,4.89,26.02,1033.67,2047.00,3248.30,3167.72,3426.08,349.25,356.94,6.33,0000 0000 0000 0000 000000
2014-12-01 03:12:00,0.15,0.61,0.00,19.46,23.92,27.10,4.89,26.02,1033.70,2047.00,3245.76,3166.01,3424.25,349.97,357.75,6.36,0000 0000 0000 0000 000000
2014-12-01 03:17:02,0.15,0.61,0.00,19.45,23.92,27.12,4.94,26.07,1033.71,2047.00,3244.04,3164.79,3422.93,349.49,357.19,6.39,0000 0000 0000 0000 000000
2014-12-01 03:22:03,0.22,0.62,0.00,19.46,23.92,27.13,4.97,26.07,1033.71,2047.00,3241.37,3162.98,3420.92,350.39,358.21,6.42,0000 0000 0000 0000 000000
2014-12-01 03:27:04,0.15,0.63,0.00,19.45,23.94,27.15,4.91,25.91,1033.71,2047.00,3239.13,3161.48,3419.31,350.17,358.05,6.45,0000 0000 0000 0000 000000
2014-12-01 03:32:05,0.16,0.63,0.00,19.44,23.95,27.17,4.97,25.97,1033.71,2047.00,3236.87,3160.06,3417.69,349.79,357.69,6.47,0000 0000 0000 0000 000000
2014-12-01 03:37:07,0.15,0.63,0.00,19.42,23.95,27.16,4.94,26.23,1033.71,2047.00,3234.86,3158.78,3416.27,349.66,357.35,6.50,0000 0000 0000 0000 000000
2014-12-01 03:42:08,0.17,0.64,0.00,19.46,23.95,27.18,4.97,26.02,1033.72,2047.00,3232.65,3157.42,3414.74,350.21,357.82,6.53,0000 0000 0000 0000 000000
2014-12-01 03:47:10,0.14,0.64,0.00,19.45,23.95,27.18,4.88,26.06,1033.75,2047.00,3230.57,3156.13,3413.28,349.76,357.68,6.56,0000 0000 0000 0000 000000
2014-12-01 03:52:11,0.14,0.65,0.00,19.45,23.96,27.20,4.90,26.02,1033.87,2047.00,3228.78,3154.91,3412.01,349.56,357.33,6.59,0000 0000 0000 0000 000000
2014-12-01 03:57:12,0.19,0.65,0.00,19.45,23.97,27.20,4.92,26.09,1033.98,2047.00,3226.27,3153.34,3410.27,349.92,357.82,6.62,0000 0000 0000 0000 000000
2014-12-01 04:02:13,0.18,0.66,0.00,19.42,23.97,27.19,4.92,26.06,1033.76,2047.00,3223.94,3151.76,3408.56,349.98,357.79,6.65,0000 0000 0000 0000 000000
2014-12-01 04:07:14,0.18,0.66,0.00,19.44,23.97,27.19,4.91,26.06,1033.87,2047.00,3221.67,3150.31,3406.93,349.57,357.53,6.68,0000 0000 0000 0000 000000
2014-12-01 04:12:15,0.20,0.67,0.00,19.46,23.97,27.19,4.92,25.98,1034.10,2047.00,3218.92,3148.46,3404.99,350.32,358.68,6.71,0000 0000 0000 0000 000000
2014-12-01 04:17:17,0.14,0.68,0.00,19.47,23.97,27.20,4.97,26.03,1034.03,2047.00,3216.73,3147.12,3403.46,350.26,358.24,6.74,0000 0000 0000 0000 000000
2014-12-01 04:22:18,0.17,0.68,0.00,19.46,23.97,27.22,4.87,25.96,1034.12,2047.00,3214.71,3145.74,3401.92,349.94,357.89,6.77,0000 0000 0000 0000 000000
2014-12-01 04:27:19,0.16,0.69,0.00,19.49,23.97,27.22,4.90,26.05,1034.19,2047.00,3212.35,3144.15,3400.28,349.83,357.53,6.80,0000 0000 0000 0000 000000
2014-12-01 04:32:20,0.13,0.69,0.00,19.49,23.99,27.21,4.91,26.08,1034.19,2047.00,3210.66,3143.00,3399.05,349.77,357.79,6.83,0000 0000 0000 0000 000000
2014-12-01 04:37:22,0.23,0.69,0.00,19.50,23.99,27.20,4.88,26.11,1034.18,2047.00,3208.13,3141.32,3397.18,350.01,358.04,6.86,0000 0000 0000 0000 000000
2014-12-01 04:42:23,0.29,0.70,0.00,19.50,23.99,27.19,4.92,26.00,1034.19,2047.00,3204.47,3138.88,3394.58,349.77,357.73,6.88,0000 0000 0000 0000 000000
2014-12-01 04:47:25,0.27,0.71,0.00,19.51,24.00,27.18,4.95,26.04,1034.19,2047.00,3200.75,3136.45,3391.93,350.32,358.15,6.91,0000 0000 0000 0000 000000
2014-12-01 04:52:26,0.28,0.72,0.00,19.53,24.00,27.18,4.90,26.04,1034.19,2047.00,3197.39,3134.25,3389.65,349.80,357.81,6.94,0000 0000 0000 0000 000000
2014-12-01 04:57:27,0.48,0.73,0.00,19.54,24.00,27.21,4.95,26.16,1034.19,2047.00,3191.57,3130.37,3385.41,350.27,358.19,6.97,0000 0000 0000 0000 000000
2014-12-01 05:02:29,0.35,0.74,0.00,19.54,24.00,27.21,4.95,26.12,1034.20,2047.00,3186.66,3127.03,3381.88,349.91,357.87,7.00,0000 0000 0000 0000 000000
2014-12-01 05:07:30,0.43,0.76,0.00,19.56,24.00,27.20,4.93,25.90,1034.20,2047.00,3181.52,3123.54,3378.10,350.50,358.14,7.03,0000 0000 0000 0000 000000
2014-12-01 05:12:31,0.43,0.77,0.00,19.57,24.02,27.21,4.99,26.03,1034.20,2047.00,3176.26,3119.88,3374.23,350.46,358.50,7.06,0000 0000 0000 0000 000000
2014-12-01 05:17:32,0.52,0.78,0.00,19.57,24.02,27.18,4.90,25.96,1034.21,2047.00,3170.03,3115.55,3369.60,349.57,357.27,7.09,0000 0000 0000 0000 000000
2014-12-01 05:22:33,0.57,0.80,0.00,19.61,24.02,27.18,4.98,26.03,1034.29,2047.00,3163.01,3110.64,3364.45,349.98,357.75,7.12,0000 0000 0000 0000 000000
2014-12-01 05:27:35,0.64,0.82,0.00,19.59,24.02,27.21,4.95,25.97,1034.47,2047.00,3155.48,3105.30,3358.80,350.12,358.06,7.15,0000 0000 0000 0000 000000
2014-12-01 05:32:36,0.48,0.83,0.00,19.61,24.03,27.20,4.89,25.98,1034.62,2047.00,3149.09,3100.76,3353.94,349.77,357.61,7.18,0000 0000 0000 0000 000000
2014-12-01 05:37:38,0.29,0.84,0.00,19.63,24.04,27.23,4.94,26.12,1034.62,2047.00,3145.01,3097.85,3350.87,349.93,357.86,7.21,0000 0000 0000 0000 000000
2014-12-01 05:42:39,0.44,0.85,0.00,19.64,24.05,27.21,4.96,26.07,1034.68,2047.00,3140.43,3094.61,3347.35,350.21,358.14,7.24,0000 0000 0000 0000 000000
2014-12-01 05:47:40,0.55,0.87,0.00,19.64,24.05,27.23,4.90,26.03,1034.68,2046.99,3133.74,3089.74,3342.26,349.87,357.71,7.27,0000 0000 0000 0000 000000
2014-12-01 05:52:41,0.22,0.88,0.00,19.66,24.05,27.23,4.97,26.10,1034.69,2046.99,3130.18,3087.28,3339.57,349.89,357.95,7.29,0000 0000 0000 0000 000000
2014-12-01 05:57:42,0.12,0.88,0.00,19.67,24.07,27.23,4.92,26.08,1034.69,2046.98,3128.39,3086.14,3338.28,349.94,357.83,7.32,0000 0000 0000 0000 000000
2014-12-01 06:02:44,0.15,0.89,0.00,19.66,24.07,27.22,4.97,26.05,1034.73,2046.97,3126.58,3084.89,3336.88,350.34,358.17,7.35,0000 0000 0000 0000 000000
2014-12-01 06:07:45,0.13,0.89,0.00,19.67,24.07,27.25,4.95,26.07,1034.73,2046.93,3124.75,3083.80,3335.62,349.87,357.78,7.38,0000 0000 0000 0000 000000
2014-12-01 06:12:46,0.13,0.90,0.00,19.64,24.09,27.25,4.89,26.05,1034.74,2046.97,3123.05,3082.80,3334.55,350.16,357.89,7.41,0000 0000 0000 0000 000000
2014-12-01 06:17:47,0.12,0.90,0.00,19.70,24.10,27.24,4.88,25.96,1034.83,2046.97,3121.44,3081.81,3333.35,349.67,357.69,7.44,0000 0000 0000 0000 000000
2014-12-01 06:22:48,0.07,0.90,0.00,19.72,24.10,27.25,4.97,25.97,1035.00,2046.95,3120.19,3081.04,3332.62,350.08,358.07,7.47,0000 0000 0000 0000 000000
2014-12-01 06:27:50,0.06,0.90,0.00,19.75,24.11,27.25,4.92,26.02,1035.10,2046.92,3119.32,3080.67,3332.01,350.21,358.30,7.50,0000 0000 0000 0000 000000
2014-12-01 06:32:51,0.04,0.91,0.00,19.77,24.12,27.24,4.91,26.07,1035.15,2046.84,3118.74,3080.04,3331.44,349.34,357.28,7.53,0000 0000 0000 0000 000000
2014-12-01 06:37:52,-0.01,0.91,0.00,19.80,24.12,27.26,4.94,26.13,1035.16,2046.72,3118.00,3079.99,3331.01,349.98,358.04,7.56,0000 0000 0000 0000 000000
2014-12-01 06:42:54,0.08,0.91,0.00,19.83,24.14,27.24,4.94,26.06,1035.17,2046.67,3117.18,3079.65,3330.82,350.22,358.10,7.59,0000 0000 0000 0000 000000
2014-12-01 06:47:55,0.04,0.91,0.00,19.84,24.15,27.23,4.92,25.99,1035.17,2046.70,3116.80,3079.07,3330.09,349.80,357.77,7.62,0000 0000 0000 0000 000000
2014-12-01 06:52:56,0.03,0.91,0.00,19.88,24.16,27.25,4.94,26.02,1035.18,2046.81,3116.06,3079.00,3329.98,350.20,357.82,7.65,0000 0000 0000 0000 000000
2014-12-01 06:57:57,0.01,0.91,0.00,19.92,24.17,27.25,4.97,26.07,1035.19,2046.49,3115.58,3078.76,3329.33,349.66,357.55,7.68,0000 0000 0000 0000 000000
2014-12-01 07:02:59,-0.01,0.91,0.00,19.94,24.19,27.26,4.83,26.08,1035.20,2046.17,3115.01,3078.09,3328.99,349.26,356.95,7.70,0000 0000 0000 0000 000000
2014-12-01 07:08:00,0.04,0.91,0.00,19.98,24.20,27.26,4.97,26.05,1035.30,2046.11,3114.41,3078.00,3328.78,349.95,357.56,7.73,0000 0000 0000 0000 000000
2014-12-01 07:13:01,0.01,0.91,0.00,20.02,24.22,27.26,4.91,26.07,1035.43,2046.09,3113.99,3077.98,3328.08,350.12,357.89,7.76,0000 0000 0000 0000 000000
2014-12-01 07:18:02,0.06,0.91,0.00,20.03,24.23,27.27,4.97,26.07,1035.55,2046.02,3113.31,3077.34,3327.94,350.01,357.80,7.79,0000 0000 0000 0000 000000
2014-12-01 07:23:04,0.03,0.92,0.00,20.03,24.25,27.26,4.97,26.10,1035.63,2046.01,3112.96,3077.01,3327.20,350.33,358.12,7.82,0000 0000 0000 0000 000000
2014-12-01 07:28:05,0.02,0.92,0.00,20.06,24.26,27.28,4.90,26.09,1035.63,2046.00,3112.24,3076.99,3327.01,349.76,357.50,7.85,0000 0000 0000 0000 000000
2014-12-01 07:33:06,0.01,0.92,0.00,20.05,24.28,27.33,4.96,26.03,1035.65,2046.00,3111.99,3076.82,3326.94,350.35,358.27,7.88,0000 0000 0000 0000 000000
2014-12-01 07:38:07,0.08,0.92,0.00,20.08,24.30,27.33,4.93,26.18,1035.66,2046.00,3111.53,3076.22,3326.29,349.62,357.52,7.91,0000 0000 0000 0000 000000
2014-12-01 07:43:09,0.01,0.92,0.00,20.10,24.31,27.36,4.92,26.07,1035.66,2045.99,3111.00,3076.00,3326.00,350.04,357.86,7.94,0000 0000 0000 0000 000000
2014-12-01 07:48:09,0.03,0.92,0.00,20.12,24.33,27.36,4.96,26.05,1035.68,2045.99,3110.35,3075.98,3325.84,350.03,357.49,7.97,0000 0000 0000 0000 000000
2014-12-01 07:53:10,0.05,0.92,0.00,20.14,24.35,27.40,4.93,26.10,1035.79,2045.99,3109.99,3075.56,3325.11,349.98,357.64,8.00,0000 0000 0000 0000 000000
2014-12-01 07:58:12,0.03,0.92,0.00,20.16,24.37,27.41,4.88,25.93,1035.93,2045.98,3109.54,3075.05,3324.99,349.86,357.51,8.03,0000 0000 0000 0000 000000
2014-12-01 08:03:13,0.02,0.92,0.00,20.17,24.38,27.44,4.90,26.13,1036.07,2045.95,3109.01,3074.99,3324.44,349.76,357.46,8.06,0000 0000 0000 0000 000000
2014-12-01 08:08:14,-0.04,0.92,0.00,20.18,24.40,27.45,4.93,25.85,1036.13,2045.66,3108.77,3074.93,3324.01,349.85,357.67,8.09,0000 0000 0000 0000 000000
2014-12-01 08:13:15,-0.01,0.92,0.00,20.19,24.42,27.47,4.98,26.09,1036.15,2045.30,3108.06,3074.40,3323.78,349.70,357.71,8.11,0000 0000 0000 0000 000000
2014-12-01 08:18:16,0.01,0.92,0.00,20.21,24.44,27.51,4.96,25.98,1036.15,2045.07,3107.85,3074.03,3323.10,350.61,357.97,8.14,0000 0000 0000 0000 000000
2014-12-01 08:23:18,0.01,0.92,0.00,20.22,24.45,27.52,4.88,25.96,1036.17,2045.03,3107.09,3073.99,3322.98,349.85,357.49,8.17,0000 0000 0000 0000 000000
2014-12-01 08:28:18,0.05,0.92,0.00,20.21,24.47,27.52,4.85,25.94,1036.22,2045.00,3106.74,3073.72,3322.32,349.87,357.63,8.20,0000 0000 0000 0000 000000
2014-12-01 08:33:20,0.04,0.93,0.00,20.23,24.49,27.57,4.87,25.95,1036.39,2045.00,3106.06,3073.14,3322.00,349.77,357.55,8.23,0000 0000 0000 0000 000000
2014-12-01 08:38:21,0.04,0.93,0.00,20.25,24.50,27.60,4.85,26.11,1036.53,2045.00,3105.52,3072.99,3321.66,349.74,357.55,8.26,0000 0000 0000 0000 000000
2014-12-01 08:43:22,0.01,0.93,0.00,20.26,24.52,27.60,4.87,26.07,1036.61,2045.00,3104.99,3072.95,3321.03,350.10,357.99,8.29,0000 0000 0000 0000 000000
2014-12-01 08:48:24,0.07,0.93,0.00,20.28,24.54,27.62,4.97,25.95,1036.53,2044.99,3104.28,3072.42,3320.83,350.56,358.35,8.32,0000 0000 0000 0000 000000
2014-12-01 08:53:25,0.04,0.93,0.00,20.31,24.55,27.64,4.89,26.01,1036.60,2044.98,3103.71,3072.03,3320.11,350.25,357.65,8.35,0000 0000 0000 0000 000000
2014-12-01 08:58:26,0.01,0.93,0.00,20.32,24.57,27.66,4.92,25.94,1036.60,2044.98,3103.00,3071.99,3319.99,349.88,357.90,8.38,0000 0000 0000 0000 000000
2014-12-01 09:03:27,0.08,0.93,0.00,20.33,24.59,27.68,4.94,26.01,1036.63,2044.97,3102.23,3071.55,3319.29,350.32,357.83,8.41,0000 0000 0000 0000 000000
2014-12-01 09:08:28,0.04,0.94,0.00,20.37,24.60,27.69,4.93,26.06,1036.64,2044.96,3101.64,3071.04,3318.95,350.15,357.95,8.44,0000 0000 0000 0000 000000
2014-12-01 09:13:30,0.03,0.94,0.00,20.38,24.62,27.69,4.92,25.92,1036.64,2044.91,3100.91,3070.99,3318.17,349.56,357.05,8.47,0000 0000 0000 0000 000000
2014-12-01 09:18:31,0.02,0.94,0.00,20.38,24.64,27.72,4.94,25.93,1036.65,2044.69,3100.08,3070.47,3317.85,350.00,357.43,8.50,0000 0000 0000 0000 000000
2014-12-01 09:23:32,0.01,0.94,0.00,20.39,24.65,27.74,4.92,25.98,1036.66,2044.41,3099.37,3070.01,3317.08,350.22,357.82,8.52,0000 0000 0000 0000 000000
2014-12-01 09:28:33,0.03,0.94,0.00,20.42,24.67,27.76,4.98,26.01,1036.70,2044.15,3098.53,3069.85,3316.63,349.92,357.71,8.55,0000 0000 0000 0000 000000
2014-12-01 09:33:35,0.03,0.94,0.00,20.43,24.68,27.77,4.90,26.00,1036.84,2044.02,3097.82,3069.11,3316.00,350.20,357.83,8.58,0000 0000 0000 0000 000000
2014-12-01 09:38:36,0.05,0.94,0.00,20.42,24.70,27.79,4.92,26.21,1037.05,2044.01,3096.93,3068.92,3315.29,350.03,357.96,8.61,0000 0000 0000 0000 000000
2014-12-01 09:43:37,0.07,0.94,0.00,20.45,24.71,27.82,4.91,25.99,1037.11,2044.01,3096.09,3068.17,3314.86,349.66,357.47,8.64,0000 0000 0000 0000 000000
2014-12-01 09:48:38,0.04,0.94,0.00,20.43,24.73,27.82,4.97,26.13,1037.12,2044.00,3095.32,3068.00,3314.07,350.12,357.90,8.67,0000 0000 0000 0000 000000
2014-12-01 09:53:39,0.09,0.95,0.00,20.46,24.75,27.83,4.92,25.96,1037.12,2044.00,3094.45,3067.38,3313.33,349.87,357.72,8.70,0000 0000 0000 0000 000000
2014-12-01 09:58:41,0.04,0.95,0.00,20.46,24.76,27.85,4.91,26.02,1037.20,2044.00,3093.58,3066.98,3312.76,350.00,357.61,8.73,0000 0000 0000 0000 000000
2014-12-01 10:03:42,0.07,0.95,0.00,20.46,24.77,27.88,4.97,26.07,1037.33,2043.99,3092.79,3066.39,3312.03,350.02,358.06,8.76,0000 0000 0000 0000 000000
2014-12-01 10:08:43,0.05,0.95,0.00,20.49,24.79,27.91,4.97,25.99,1037.54,2043.99,3091.88,3066.01,3311.60,350.54,358.27,8.79,0000 0000 0000 0000 000000
2014-12-01 10:13:44,0.08,0.95,0.00,20.51,24.80,27.91,4.95,25.90,1037.60,2043.96,3090.96,3065.39,3310.85,350.15,357.93,8.82,0000 0000 0000 0000 000000
2014-12-01 10:18:46,0.05,0.96,0.00,20.52,24.82,27.90,5.00,26.12,1037.61,2043.95,3090.04,3064.99,3310.07,350.16,358.04,8.85,0000 0000 0000 0000 000000
2014-12-01 10:23:47,0.08,0.96,0.00,20.53,24.82,27.93,4.90,25.93,1037.61,2043.89,3089.17,3064.44,3309.43,350.39,358.09,8.88,0000 0000 0000 0000 000000
2014-12-01 10:28:48,0.01,0.96,0.00,20.54,24.85,27.94,4.88,25.98,1037.64,2043.65,3088.24,3064.00,3308.78,349.92,357.86,8.91,0000 0000 0000 0000 000000
2014-12-01 10:33:50,0.02,0.96,0.00,20.54,24.85,27.95,4.94,26.03,1037.69,2043.30,3087.38,3063.46,3308.03,350.66,358.27,8.93,0000 0000 0000 0000 000000
2014-12-01 10:38:51,0.03,0.96,0.00,20.57,24.87,28.00,4.95,26.07,1037.84,2043.07,3086.41,3062.90,3307.23,350.25,358.19,8.96,0000 0000 0000 0000 000000
2014-12-01 10:43:53,0.08,0.96,0.00,20.58,24.88,27.98,4.91,25.93,1037.92,2043.02,3085.50,3062.16,3306.63,349.59,357.56,8.99,0000 0000 0000 0000 000000
2014-12-01 10:48:54,0.04,0.96,0.00,20.58,24.90,28.01,4.94,26.07,1037.90,2043.02,3084.54,3061.98,3305.98,349.94,357.90,9.02,0000 0000 0000 0000 000000
2014-12-01 10:53:55,0.10,0.97,0.00,20.61,24.91,28.01,4.89,25.97,1037.98,2043.01,3083.59,3061.25,3305.21,350.13,358.10,9.05,0000 0000 0000 0000 000000
2014-12-01 10:58:56,0.05,0.97,0.00,20.60,24.92,28.03,4.92,25.93,1038.08,2043.00,3082.55,3060.94,3304.57,349.77,357.64,9.08,0000 0000 0000 0000 000000
2014-12-01 11:03:57,0.08,0.97,0.00,20.64,24.94,28.04,4.92,25.93,1038.10,2043.00,3081.49,3060.12,3303.97,350.13,358.16,9.11,0000 0000 0000 0000 000000
2014-12-01 11:08:58,0.07,0.97,0.00,20.64,24.95,28.02,4.96,25.96,1038.10,2043.00,3080.50,3059.71,3303.14,349.93,357.77,9.14,0000 0000 0000 0000 000000
2014-12-01 11:14:00,0.07,0.97,0.00,20.64,24.96,28.08,4.90,25.93,1038.11,2043.00,3079.58,3059.06,3302.45,349.76,357.52,9.17,0000 0000 0000 0000 000000
2014-12-01 11:19:01,0.08,0.98,0.00,20.66,24.97,28.11,4.91,25.98,1038.16,2043.00,3078.49,3058.58,3301.73,349.70,357.49,9.20,0000 0000 0000 0000 000000
2014-12-01 11:24:02,0.05,0.98,0.00,20.65,24.97,28.09,4.94,26.02,1038.46,2042.98,3077.35,3057.99,3300.99,350.33,358.33,9.23,0000 0000 0000 0000 000000
2014-12-01 11:29:04,0.09,0.98,0.00,20.66,25.00,28.12,4.93,25.99,1038.54,2042.98,3076.42,3057.32,3300.18,349.78,357.71,9.26,0000 0000 0000 0000 000000
2014-12-01 11:34:05,0.05,0.98,0.00,20.68,25.00,28.15,4.94,25.93,1038.58,2042.98,3075.41,3056.97,3299.59,350.11,357.80,9.29,0000 0000 0000 0000 000000
2014-12-01 11:39:06,0.08,0.99,0.00,20.69,25.02,28.16,4.92,26.12,1038.59,2042.98,3074.48,3056.21,3298.84,350.11,358.15,9.32,0000 0000 0000 0000 000000
2014-12-01 11:44:07,0.03,0.99,0.00,20.71,25.02,28.14,4.92,25.98,1038.59,2042.94,3073.61,3055.97,3298.05,349.64,357.51,9.34,0000 0000 0000 0000 000000
2014-12-01 11:49:09,0.07,0.99,0.00,20.69,25.05,28.17,4.93,25.94,1038.61,2042.84,3072.64,3055.25,3297.39,350.10,358.10,9.37,0000 0000 0000 0000 000000
2014-12-01 11:54:10,0.02,0.99,0.00,20.70,25.05,28.18,4.92,25.98,1038.65,2042.54,3071.65,3054.76,3296.73,349.83,357.79,9.40,0000 0000 0000 0000 000000
2014-12-01 11:59:11,0.03,0.99,0.00,20.71,25.07,28.22,4.89,25.88,1038.73,2042.29,3070.75,3054.03,3296.00,350.35,358.33,9.43,0000 0000 0000 0000 000000
2014-12-01 12:04:12,0.05,0.99,0.00,20.70,25.07,28.23,4.92,25.91,1038.86,2042.11,3069.73,3053.61,3295.22,350.47,358.50,9.46,0000 0000 0000 0000 000000
2014-12-01 12:09:14,0.06,1.00,0.00,20.73,25.09,28.24,4.94,26.02,1039.02,2042.09,3068.80,3053.01,3294.54,349.93,358.03,9.49,0000 0000 0000 0000 000000
2014-12-01 12:14:15,0.06,1.00,0.00,20.73,25.10,28.25,4.93,25.88,1039.07,2042.07,3067.91,3052.67,3293.96,350.03,358.11,9.52,0000 0000 0000 0000 000000
2014-12-01 12:19:16,0.06,1.00,0.00,20.75,25.11,28.27,4.88,25.95,1039.08,2042.06,3066.94,3052.04,3293.21,349.53,357.60,9.55,0000 0000 0000 0000 000000
2014-12-01 12:24:18,0.06,1.00,0.00,20.76,25.12,28.29,4.95,26.02,1039.08,2042.04,3065.99,3051.71,3292.62,350.23,358.00,9.58,0000 0000 0000 0000 000000
2014-12-01 12:29:19,0.06,1.00,0.00,20.75,25.13,28.33,4.91,25.91,1039.10,2042.04,3065.00,3051.02,3291.90,350.20,358.17,9.61,0000 0000 0000 0000 000000
2014-12-01 12:34:20,0.08,1.01,0.00,20.77,25.15,28.31,4.90,25.84,1039.16,2042.00,3064.03,3050.42,3291.07,349.80,357.85,9.64,0000 0000 0000 0000 000000
2014-12-01 12:39:22,0.07,1.01,0.00,20.78,25.15,28.30,4.95,26.08,1039.38,2042.00,3062.94,3049.96,3290.35,350.50,358.57,9.67,0000 0000 0000 0000 000000
2014-12-01 12:44:23,0.07,1.01,0.00,20.77,25.16,28.31,4.96,26.00,1039.55,2042.00,3062.04,3049.25,3289.78,349.96,358.24,9.70,0000 0000 0000 0000 000000
2014-12-01 12:49:24,0.05,1.01,0.00,20.79,25.17,28.33,4.83,25.96,1039.57,2042.00,3061.22,3048.97,3289.03,349.55,357.69,9.73,0000 0000 0000 0000 000000
2014-12-01 12:54:26,0.10,1.01,0.00,20.81,25.18,28.36,4.97,25.91,1039.57,2041.99,3060.20,3048.23,3288.21,350.06,358.29,9.75,0000 0000 0000 0000 000000
2014-12-01 12:59:27,0.05,1.02,0.00,20.82,25.20,28.39,4.92,25.95,1039.57,2041.98,3059.28,3047.99,3287.67,349.83,358.06,9.78,0000 0000 0000 0000 000000
2014-12-01 13:04:28,0.08,1.02,0.00,20.82,25.20,28.33,4.99,25.95,1039.57,2041.99,3058.37,3047.29,3287.00,350.31,358.42,9.81,0000 0000 0000 0000 000000